Regional Weather Roundup
Issued by NWS

Home | Current Version | Previous Version | Text Only | Print | Product List | Glossary On
Versions: 1 2 3 4 5 6 7 8 9 10 11 12 13 14 15 16 17 18 19 20 21 22 23 24 25 26 27 28 29 30 31 32 33 34 35 36 37 38 39 40 41 42 43 44 45 46 47 48 49 50
000
ASUS45 KSLC 191710
RWRUT

UTAH REGIONAL WEATHER ROUNDUP
NATIONAL WEATHER SERVICE SALT LAKE CITY UT
1000 AM MST FRI DEC 19 2014

UTZ001>011-023>025-191800-

NORTHERN UTAH

CITY           SKY/WX    TMP DP  RH WIND       PRES   REMARKS
BRIGHAM CITY   PTSUNNY   37  28  67 W5        30.21S WCI  34
HILL AFB       MOSUNNY   35  23  61 SE6       30.20R WCI  30
LOGAN          PTSUNNY   34  28  79 CALM      30.19R
OGDEN          PTSUNNY   36  25  64 CALM      30.20R
PROVO AIRPORT  MOSUNNY   34  25  69 SE8       30.24S WCI  27
SALT LAKE CITY PTSUNNY   37  28  70 SE12      30.19S WCI  29
VERNAL         CLOUDY    28  21  75 S3        30.30R
WENDOVER       CLOUDY    28  23  80 NE5       30.19S WCI  23
HEBER CITY     PTSUNNY   28  23  80 CALM      30.23S
WEST JORDAN    PTSUNNY   34  30  86 S14       30.20S WCI  24

$$

UTZ012>022-026-027-191800-

SOUTHERN/CENTRAL UTAH

CITY           SKY/WX    TMP DP  RH WIND       PRES   REMARKS
BLANDING       SUNNY     33  29  88 CALM      30.34R
BRYCE CANYON   MOSUNNY   25  19  78 CALM      30.24S
CEDAR CITY     PTSUNNY   31  25  78 CALM      30.22R
DELTA          PTSUNNY   31  26  83 CALM      30.23S
MILFORD        PTSUNNY   34  27  75 SW14      30.21S WCI  25
MOAB/CYNLANDS  CLOUDY    34  33  96 CALM      30.28R
PRICE          MOSUNNY   27  23  85 CALM      30.24R
ST GEORGE      CLOUDY    37  30  75 CALM      30.31R
KANAB            N/A     32  30  93 CALM      30.32R

$$

REGIONAL REPORTS     COLORADO/ARIZONA

CITY           SKY/WX    TMP DP  RH WIND       PRES   REMARKS
CRAIG, CO      CLOUDY    27  21  78 CALM      30.25S
GRAND JUNCTION PTSUNNY   32  29  88 E5        30.29R WCI  27
RIFLE          CLOUDY    29  26  89 E3        30.27S
MONTROSE       CLOUDY    32  26  78 SE6       30.29R WCI  26
CORTEZ         SUNNY     31  22  69 NE5       30.27R WCI  26
PAGE, AZ       SUNNY     38  28  67 CALM      30.28R
GRAND CANYON   SUNNY     32  29  88 CALM      30.26R
KINGMAN        MOSUNNY   45  36  70 E5        30.26R
FLAGSTAFF      SUNNY     30  24  78 CALM      30.27R

$$

REGIONAL REPORTS    NEVADA/IDAHO/WYOMING

CITY           SKY/WX    TMP DP  RH WIND       PRES   REMARKS
LAS VEGAS, NV  PTSUNNY   45  36  70 S8        30.23R
ELY            PTSUNNY   26  21  81 SE7       30.19F WCI  18
ELKO           CLOUDY    36  28  73 CALM      30.13R
POCATELLO, ID  PTSUNNY   39  29  67 S20G25    30.12S WCI  29
BURLEY         CLOUDY    40  26  57 S18       30.09R WCI  31
EVANSTON, WY   CLOUDY    25  22  88 SW9       30.16S WCI  15
ROCK SPRINGS   CLOUDY    28  18  66 SW17      30.15R WCI  16
KEMMERER       MOSUNNY   28  23  80 SW8       30.14S WCI  20

$$


USA.gov is the U.S. government's official web portal to all federal, state and local government web resources and services.